Miscellaneous Local Product
Issued by NWS North Platte, NE

Home | Current Version | Previous Version | Graphics & Text | Print | Product List | Glossary On
Versions: 1 2 3 4 5 6 7 8 9 10 11 12 13 14 15 16 17 18 19 20 21 22 23 24 25 26 27 28 29 30 31 32 33 34 35 36 37 38 39 40 41 42 43 44 45 46 47 48 49 50
000
AXUS43 KLBF 160310
MISLBF


WESTERN AND NORTH CENTRAL NEBRASKA HOURLY WEATHER ROUNDUP
NATIONAL WEATHER SERVICE NORTH PLATTE NE
1000 PM CDT MON SEP 15 2014

***STATIONS NOT REPORTING VARIABLES SUCH AS SKY/WEATHER OR
PRESSURE ARE PROVIDED BY THE NEBRASKA DEPARTMENT OF
ROADS...RAWS...AND APRS NETWORKS...AND ARE NOT UNDER
NATIONAL WEATHER SERVICE QUALITY CONTROL***

...OBSERVATIONS IN AND NEAR THE EASTERN PANHANDLE OF NEBRASKA...

CITY           SKY/WX    TMP DP  RH WIND       PRES   REMARKS
PINE RIDGE     CLEAR     60  42  51 S12G17    30.16S
CHADRON        CLEAR     60  45  57 S9        30.13F
ALLIANCE       CLEAR     51  44  77 SE10      30.20R
SIDNEY         CLEAR     56  45  66 S13       30.24R
WHITECLAY        N/A     58  41  53 SE13        N/A
RUSHVILLE        N/A     53  39  58 S14         N/A
LISCO            N/A     55  45  67 E7          N/A
BIG SPRINGS      N/A     56  47  72 CALM        N/A
$$

...OBSERVATIONS IN NORTH CENTRAL NEBRASKA...

CITY           SKY/WX    TMP DP  RH WIND       PRES   REMARKS
VALENTINE      CLEAR     50  40  68 S7        30.21S
THEDFORD       CLEAR     53  41  64 S8        30.24S
AINSWORTH      CLEAR     44  39  84 SE5       30.23S
O`NEILL        CLEAR     50  44  77 SE5       30.25S
ORD            CLEAR     46  43  89 CALM      30.25R
BROKEN BOW     CLEAR     44  41  89 CALM      30.25R
SPRINGVIEW       N/A     47  40  77 CALM        N/A
ROSE             N/A     50  41  70 E7          N/A
NEWPORT          N/A     48  39  71 SE6         N/A
COMSTOCK         N/A     49  43  81 SE5         N/A
CHAMBERS         N/A     45  37  73 CALM        N/A
$$

...OBSERVATIONS IN SOUTHWEST NEBRASKA AND FAR NORTHEAST COLORADO...

CITY           SKY/WX    TMP DP  RH WIND       PRES   REMARKS
WRAY           FAIR      55  47  76 SE8       30.26R
HOLYOKE        FAIR      54  46  76 S7        30.25S
IMPERIAL       CLEAR     51  45  79 SE7       30.25S
OGALLALA       CLEAR     56  47  72 S8        30.23S
NORTH PLATTE   CLEAR     46  43  89 SE7       30.24S
MCCOOK         CLEAR     53  45  74 E6        30.26R
LEXINGTON      CLEAR     50  45  84 S3        30.26R
PAXTON           N/A     53  46  78 CALM        N/A
SUTHERLAND       N/A     53  42  65 S7          N/A
BRADY            N/A     49  43  80 CALM        N/A
GOTHENBURG       N/A     53  42  67 CALM        N/A
CALLAWAY         N/A     48  44  85 SE3         N/A
$$

...SOME WEATHER OBSERVATIONS FROM AROUND THE REGION...

CITY           SKY/WX    TMP DP  RH WIND       PRES   REMARKS
DENVER         CLEAR     62  50  64 S9        30.24R
LARAMIE        MOCLDY    53  42  66 S9        30.30R
CHEYENNE       CLEAR     56  46  69 S12       30.28R
SCOTTSBLUFF    CLEAR     56  47  71 E12       30.17S
RAPID CITY     CLEAR     53  43  68 S5        30.12S
PIERRE         CLEAR     44  38  79 E5        30.17R
WINNER         FAIR      50  40  68 SE10      30.21S
SIOUX FALLS    CLEAR     48  44  86 CALM      30.24R
OMAHA          CLEAR     53  49  86 CALM      30.27R
GRAND ISLAND   CLEAR     50  45  83 SE3       30.27R
KANSAS CITY    CLEAR     53  50  89 N7        30.23R
WICHITA        MOCLDY    68  57  68 NE9       30.20R
HAYS           CLEAR     55  46  71 NE9       30.25R
LIBERAL        MOCLDY    63  54  72 NE5       30.28R
GOODLAND       CLEAR     53  50  89 S8        30.29R
$$



USA.gov is the U.S. government's official web portal to all federal, state and local government web resources and services.